owner,sensor,date,latitude,longitude,vertical_datum,sea_water_practical_salinity,qcFlag 
SCCF RECON,ioos:station:SCCF:56:1,2015-04-01T00:00:00Z,26.4645,-82.1044,1.0,31.08,1111122 
SCCF RECON,ioos:station:SCCF:56:1,2015-04-01T01:00:00Z,26.4645,-82.1044,1.0,31.65,1111122 
SCCF RECON,ioos:station:SCCF:56:1,2015-04-01T02:00:00Z,26.4645,-82.1044,1.0,31.76,1111122 
SCCF RECON,ioos:station:SCCF:56:1,2015-04-01T03:00:00Z,26.4645,-82.1044,1.0,31.62,1111122 
SCCF RECON,ioos:station:SCCF:56:1,2015-04-01T04:00:00Z,26.4645,-82.1044,1.0,31.54,1111122 
SCCF RECON,ioos:station:SCCF:56:1,2015-04-01T05:00:00Z,26.4645,-82.1044,1.0,31.63,1111122 
SCCF RECON,ioos:station:SCCF:56:1,2015-04-01T06:00:00Z,26.4645,-82.1044,1.0,31.43,1111122 
SCCF RECON,ioos:station:SCCF:56:1,2015-04-01T07:00:00Z,26.4645,-82.1044,1.0,31.3,1111122 
SCCF RECON,ioos:station:SCCF:56:1,2015-04-01T08:00:00Z,26.4645,-82.1044,1.0,31.46,1111122 
SCCF RECON,ioos:station:SCCF:56:1,2015-04-01T09:00:00Z,26.4645,-82.1044,1.0,31.44,1111122 
SCCF RECON,ioos:station:SCCF:56:1,2015-04-01T10:00:00Z,26.4645,-82.1044,1.0,31.46,1111122 
SCCF RECON,ioos:station:SCCF:56:1,2015-04-01T11:00:00Z,26.4645,-82.1044,1.0,31.45,1111122 
SCCF RECON,ioos:station:SCCF:56:1,2015-04-01T12:00:00Z,26.4645,-82.1044,1.0,31.43,1111122 
SCCF RECON,ioos:station:SCCF:56:1,2015-04-01T13:00:00Z,26.4645,-82.1044,1.0,31.67,1111122 
SCCF RECON,ioos:station:SCCF:56:1,2015-04-01T14:00:00Z,26.4645,-82.1044,1.0,31.63,1111122 
SCCF RECON,ioos:station:SCCF:56:1,2015-04-01T15:00:00Z,26.4645,-82.1044,1.0,31.68,1111122 
SCCF RECON,ioos:station:SCCF:56:1,2015-04-01T16:00:00Z,26.4645,-82.1044,1.0,31.65,1111122 
SCCF RECON,ioos:station:SCCF:56:1,2015-04-01T17:00:00Z,26.4645,-82.1044,1.0,31.73,1111122 
SCCF RECON,ioos:station:SCCF:56:1,2015-04-01T18:00:00Z,26.4645,-82.1044,1.0,31.86,1111122 
SCCF RECON,ioos:station:SCCF:56:1,2015-04-01T19:00:00Z,26.4645,-82.1044,1.0,31.86,1111122 
SCCF RECON,ioos:station:SCCF:56:1,2015-04-01T20:00:00Z,26.4645,-82.1044,1.0,31.7,1111122 
SCCF RECON,ioos:station:SCCF:56:1,2015-04-01T21:00:00Z,26.4645,-82.1044,1.0,31.71,1111122 
SCCF RECON,ioos:station:SCCF:56:1,2015-04-01T22:00:00Z,26.4645,-82.1044,1.0,31.73,1111122 
SCCF RECON,ioos:station:SCCF:56:1,2015-04-01T23:00:00Z,26.4645,-82.1044,1.0,31.69,1111122 
SCCF RECON,ioos:station:SCCF:56:1,2015-04-02T00:00:00Z,26.4645,-82.1044,1.0,31.69,1111122 
SCCF RECON,ioos:station:SCCF:56:1,2015-04-02T01:00:00Z,26.4645,-82.1044,1.0,31.62,1111122 
SCCF RECON,ioos:station:SCCF:56:1,2015-04-02T02:00:00Z,26.4645,-82.1044,1.0,31.77,1111122 
SCCF RECON,ioos:station:SCCF:56:1,2015-04-02T03:00:00Z,26.4645,-82.1044,1.0,31.93,1111122 
SCCF RECON,ioos:station:SCCF:56:1,2015-04-02T04:00:00Z,26.4645,-82.1044,1.0,31.79,1111122 
SCCF RECON,ioos:station:SCCF:56:1,2015-04-02T05:00:00Z,26.4645,-82.1044,1.0,31.47,1111122 
SCCF RECON,ioos:station:SCCF:56:1,2015-04-02T06:00:00Z,26.4645,-82.1044,1.0,31.56,1111122 
SCCF RECON,ioos:station:SCCF:56:1,2015-04-02T07:00:00Z,26.4645,-82.1044,1.0,31.69,1111122 
SCCF RECON,ioos:station:SCCF:56:1,2015-04-02T08:00:00Z,26.4645,-82.1044,1.0,31.75,1111122 
SCCF RECON,ioos:station:SCCF:56:1,2015-04-02T09:00:00Z,26.4645,-82.1044,1.0,31.79,1111122 
SCCF RECON,ioos:station:SCCF:56:1,2015-04-02T10:00:00Z,26.4645,-82.1044,1.0,31.8,1111122 
SCCF RECON,ioos:station:SCCF:56:1,2015-04-02T11:00:00Z,26.4645,-82.1044,1.0,31.86,1111122 
SCCF RECON,ioos:station:SCCF:56:1,2015-04-02T12:00:00Z,26.4645,-82.1044,1.0,31.86,1111122 
SCCF RECON,ioos:station:SCCF:56:1,2015-04-02T13:00:00Z,26.4645,-82.1044,1.0,31.38,1111122 
SCCF RECON,ioos:station:SCCF:56:1,2015-04-02T14:00:00Z,26.4645,-82.1044,1.0,31.44,1111122 
SCCF RECON,ioos:station:SCCF:56:1,2015-04-02T15:00:00Z,26.4645,-82.1044,1.0,31.36,1111122 
SCCF RECON,ioos:station:SCCF:56:1,2015-04-02T16:00:00Z,26.4645,-82.1044,1.0,31.28,1111122 
SCCF RECON,ioos:station:SCCF:56:1,2015-04-02T18:00:00Z,26.4645,-82.1044,1.0,31.49,1111122 
SCCF RECON,ioos:station:SCCF:56:1,2015-04-02T19:00:00Z,26.4645,-82.1044,1.0,31.27,1111122 
SCCF RECON,ioos:station:SCCF:56:1,2015-04-02T20:00:00Z,26.4645,-82.1044,1.0,31.36,1111122 
SCCF RECON,ioos:station:SCCF:56:1,2015-04-02T21:00:00Z,26.4645,-82.1044,1.0,31.48,1111122 
SCCF RECON,ioos:station:SCCF:56:1,2015-04-02T22:00:00Z,26.4645,-82.1044,1.0,31.62,1111122 
SCCF RECON,ioos:station:SCCF:56:1,2015-04-02T23:00:00Z,26.4645,-82.1044,1.0,31.73,1111122 
SCCF RECON,ioos:station:SCCF:56:1,2015-04-03T00:00:00Z,26.4645,-82.1044,1.0,31.78,1111122 
SCCF RECON,ioos:station:SCCF:56:1,2015-04-03T01:00:00Z,26.4645,-82.1044,1.0,31.71,1111122 
SCCF RECON,ioos:station:SCCF:56:1,2015-04-03T02:00:00Z,26.4645,-82.1044,1.0,31.5,1111122 
SCCF RECON,ioos:station:SCCF:56:1,2015-04-03T03:00:00Z,26.4645,-82.1044,1.0,31.64,1111122 
SCCF RECON,ioos:station:SCCF:56:1,2015-04-03T04:00:00Z,26.4645,-82.1044,1.0,31.56,1111122 
SCCF RECON,ioos:station:SCCF:56:1,2015-04-03T05:00:00Z,26.4645,-82.1044,1.0,31.54,1111122 
SCCF RECON,ioos:station:SCCF:56:1,2015-04-03T06:00:00Z,26.4645,-82.1044,1.0,31.4,1111122 
SCCF RECON,ioos:station:SCCF:56:1,2015-04-03T07:00:00Z,26.4645,-82.1044,1.0,31.38,1111122 
SCCF RECON,ioos:station:SCCF:56:1,2015-04-03T08:00:00Z,26.4645,-82.1044,1.0,31.5,1111122 
SCCF RECON,ioos:station:SCCF:56:1,2015-04-03T09:00:00Z,26.4645,-82.1044,1.0,31.6,1111122 
SCCF RECON,ioos:station:SCCF:56:1,2015-04-03T10:00:00Z,26.4645,-82.1044,1.0,31.66,1111122 
SCCF RECON,ioos:station:SCCF:56:1,2015-04-03T11:00:00Z,26.4645,-82.1044,1.0,31.73,1111122 
SCCF RECON,ioos:station:SCCF:56:1,2015-04-03T12:00:00Z,26.4645,-82.1044,1.0,31.79,1111122 
SCCF RECON,ioos:station:SCCF:56:1,2015-04-03T13:00:00Z,26.4645,-82.1044,1.0,31.37,1111122 
SCCF RECON,ioos:station:SCCF:56:1,2015-04-03T14:00:00Z,26.4645,-82.1044,1.0,31.11,1111122 
SCCF RECON,ioos:station:SCCF:56:1,2015-04-03T15:00:00Z,26.4645,-82.1044,1.0,31.12,1111122 
SCCF RECON,ioos:station:SCCF:56:1,2015-04-03T16:00:00Z,26.4645,-82.1044,1.0,31.13,1111122 
SCCF RECON,ioos:station:SCCF:56:1,2015-04-03T17:00:00Z,26.4645,-82.1044,1.0,30.99,1111122 
SCCF RECON,ioos:station:SCCF:56:1,2015-04-03T18:00:00Z,26.4645,-82.1044,1.0,31.11,1111122 
SCCF RECON,ioos:station:SCCF:56:1,2015-04-03T19:00:00Z,26.4645,-82.1044,1.0,31.06,1111122 
SCCF RECON,ioos:station:SCCF:56:1,2015-04-03T20:00:00Z,26.4645,-82.1044,1.0,31.0,1111122 
SCCF RECON,ioos:station:SCCF:56:1,2015-04-03T21:00:00Z,26.4645,-82.1044,1.0,31.15,1111122 
SCCF RECON,ioos:station:SCCF:56:1,2015-04-03T22:00:00Z,26.4645,-82.1044,1.0,31.32,1111122 
SCCF RECON,ioos:station:SCCF:56:1,2015-04-03T23:00:00Z,26.4645,-82.1044,1.0,31.55,1111122 
SCCF RECON,ioos:station:SCCF:56:1,2015-04-04T00:00:00Z,26.4645,-82.1044,1.0,31.65,1111122 
SCCF RECON,ioos:station:SCCF:56:1,2015-04-04T01:00:00Z,26.4645,-82.1044,1.0,31.67,1111122 
SCCF RECON,ioos:station:SCCF:56:1,2015-04-04T02:00:00Z,26.4645,-82.1044,1.0,31.41,1111122 
SCCF RECON,ioos:station:SCCF:56:1,2015-04-04T03:00:00Z,26.4645,-82.1044,1.0,31.3,1111122 
SCCF RECON,ioos:station:SCCF:56:1,2015-04-04T04:00:00Z,26.4645,-82.1044,1.0,31.29,1111122 
SCCF RECON,ioos:station:SCCF:56:1,2015-04-04T05:00:00Z,26.4645,-82.1044,1.0,31.29,1111122 
SCCF RECON,ioos:station:SCCF:56:1,2015-04-04T06:00:00Z,26.4645,-82.1044,1.0,30.93,1111122 
SCCF RECON,ioos:station:SCCF:56:1,2015-04-04T07:00:00Z,26.4645,-82.1044,1.0,31.01,1111122 
SCCF RECON,ioos:station:SCCF:56:1,2015-04-04T08:00:00Z,26.4645,-82.1044,1.0,31.08,1111122 
SCCF RECON,ioos:station:SCCF:56:1,2015-04-04T09:00:00Z,26.4645,-82.1044,1.0,31.25,1111122 
SCCF RECON,ioos:station:SCCF:56:1,2015-04-04T10:00:00Z,26.4645,-82.1044,1.0,31.38,1111122 
SCCF RECON,ioos:station:SCCF:56:1,2015-04-04T11:00:00Z,26.4645,-82.1044,1.0,31.47,1111122 
SCCF RECON,ioos:station:SCCF:56:1,2015-04-04T12:00:00Z,26.4645,-82.1044,1.0,31.6,1111122 
SCCF RECON,ioos:station:SCCF:56:1,2015-04-04T13:00:00Z,26.4645,-82.1044,1.0,31.57,1111122 
SCCF RECON,ioos:station:SCCF:56:1,2015-04-04T14:00:00Z,26.4645,-82.1044,1.0,30.63,1111122 
SCCF RECON,ioos:station:SCCF:56:1,2015-04-04T15:00:00Z,26.4645,-82.1044,1.0,30.67,1111122 
SCCF RECON,ioos:station:SCCF:56:1,2015-04-04T16:00:00Z,26.4645,-82.1044,1.0,30.82,1111122 
SCCF RECON,ioos:station:SCCF:56:1,2015-04-04T17:00:00Z,26.4645,-82.1044,1.0,30.77,1111122 
SCCF RECON,ioos:station:SCCF:56:1,2015-04-04T18:00:00Z,26.4645,-82.1044,1.0,30.6,1111122 
SCCF RECON,ioos:station:SCCF:56:1,2015-04-04T19:00:00Z,26.4645,-82.1044,1.0,30.48,1111122 
SCCF RECON,ioos:station:SCCF:56:1,2015-04-04T20:00:00Z,26.4645,-82.1044,1.0,30.55,1111122 
SCCF RECON,ioos:station:SCCF:56:1,2015-04-04T21:00:00Z,26.4645,-82.1044,1.0,30.69,1111122 
SCCF RECON,ioos:station:SCCF:56:1,2015-04-04T22:00:00Z,26.4645,-82.1044,1.0,30.95,1111122 
SCCF RECON,ioos:station:SCCF:56:1,2015-04-04T23:00:00Z,26.4645,-82.1044,1.0,31.27,1111122 
SCCF RECON,ioos:station:SCCF:56:1,2015-04-05T00:00:00Z,26.4645,-82.1044,1.0,31.38,1111122 
SCCF RECON,ioos:station:SCCF:56:1,2015-04-05T01:00:00Z,26.4645,-82.1044,1.0,31.48,1111122 
SCCF RECON,ioos:station:SCCF:56:1,2015-04-05T02:00:00Z,26.4645,-82.1044,1.0,31.41,1111122 
SCCF RECON,ioos:station:SCCF:56:1,2015-04-05T03:00:00Z,26.4645,-82.1044,1.0,30.98,1111122 
SCCF RECON,ioos:station:SCCF:56:1,2015-04-05T04:00:00Z,26.4645,-82.1044,1.0,31.02,1111122 
SCCF RECON,ioos:station:SCCF:56:1,2015-04-05T05:00:00Z,26.4645,-82.1044,1.0,31.12,1111122 
SCCF RECON,ioos:station:SCCF:56:1,2015-04-05T06:00:00Z,26.4645,-82.1044,1.0,30.84,1111122 
SCCF RECON,ioos:station:SCCF:56:1,2015-04-05T07:00:00Z,26.4645,-82.1044,1.0,30.78,1111122 
SCCF RECON,ioos:station:SCCF:56:1,2015-04-05T08:00:00Z,26.4645,-82.1044,1.0,30.95,1111122 
SCCF RECON,ioos:station:SCCF:56:1,2015-04-05T09:00:00Z,26.4645,-82.1044,1.0,30.95,1111122 
SCCF RECON,ioos:station:SCCF:56:1,2015-04-05T10:00:00Z,26.4645,-82.1044,1.0,31.14,1111122 
SCCF RECON,ioos:station:SCCF:56:1,2015-04-05T11:00:00Z,26.4645,-82.1044,1.0,31.25,1111122 
SCCF RECON,ioos:station:SCCF:56:1,2015-04-05T12:00:00Z,26.4645,-82.1044,1.0,31.32,1111122 
SCCF RECON,ioos:station:SCCF:56:1,2015-04-05T13:00:00Z,26.4645,-82.1044,1.0,31.39,1111122 
SCCF RECON,ioos:station:SCCF:56:1,2015-04-05T14:00:00Z,26.4645,-82.1044,1.0,31.3,1111122 
SCCF RECON,ioos:station:SCCF:56:1,2015-04-05T15:00:00Z,26.4645,-82.1044,1.0,30.83,1111122 
SCCF RECON,ioos:station:SCCF:56:1,2015-04-05T16:00:00Z,26.4645,-82.1044,1.0,30.95,1111122 
SCCF RECON,ioos:station:SCCF:56:1,2015-04-05T17:00:00Z,26.4645,-82.1044,1.0,30.86,1111122 
SCCF RECON,ioos:station:SCCF:56:1,2015-04-05T18:00:00Z,26.4645,-82.1044,1.0,30.82,1111122 
SCCF RECON,ioos:station:SCCF:56:1,2015-04-05T19:00:00Z,26.4645,-82.1044,1.0,30.71,1111122 
SCCF RECON,ioos:station:SCCF:56:1,2015-04-05T20:00:00Z,26.4645,-82.1044,1.0,30.67,1111122 
SCCF RECON,ioos:station:SCCF:56:1,2015-04-05T21:00:00Z,26.4645,-82.1044,1.0,30.74,1111122 
SCCF RECON,ioos:station:SCCF:56:1,2015-04-05T22:00:00Z,26.4645,-82.1044,1.0,30.89,1111122 
SCCF RECON,ioos:station:SCCF:56:1,2015-04-05T23:00:00Z,26.4645,-82.1044,1.0,31.12,1111122 
SCCF RECON,ioos:station:SCCF:56:1,2015-04-06T00:00:00Z,26.4645,-82.1044,1.0,31.3,1111122 
SCCF RECON,ioos:station:SCCF:56:1,2015-04-06T01:00:00Z,26.4645,-82.1044,1.0,31.36,1111122 
SCCF RECON,ioos:station:SCCF:56:1,2015-04-06T02:00:00Z,26.4645,-82.1044,1.0,31.4,1111122 
SCCF RECON,ioos:station:SCCF:56:1,2015-04-06T03:00:00Z,26.4645,-82.1044,1.0,31.14,1111122 
SCCF RECON,ioos:station:SCCF:56:1,2015-04-06T04:00:00Z,26.4645,-82.1044,1.0,30.88,1111122 
SCCF RECON,ioos:station:SCCF:56:1,2015-04-06T05:00:00Z,26.4645,-82.1044,1.0,30.92,1111122 
SCCF RECON,ioos:station:SCCF:56:1,2015-04-06T06:00:00Z,26.4645,-82.1044,1.0,30.87,1111122 
SCCF RECON,ioos:station:SCCF:56:1,2015-04-06T07:00:00Z,26.4645,-82.1044,1.0,30.59,1111122 
SCCF RECON,ioos:station:SCCF:56:1,2015-04-06T08:00:00Z,26.4645,-82.1044,1.0,30.7,1111122 
SCCF RECON,ioos:station:SCCF:56:1,2015-04-06T09:00:00Z,26.4645,-82.1044,1.0,30.67,1111122 
SCCF RECON,ioos:station:SCCF:56:1,2015-04-06T10:00:00Z,26.4645,-82.1044,1.0,30.8,1111122 
SCCF RECON,ioos:station:SCCF:56:1,2015-04-06T11:00:00Z,26.4645,-82.1044,1.0,30.91,1111122 
SCCF RECON,ioos:station:SCCF:56:1,2015-04-06T12:00:00Z,26.4645,-82.1044,1.0,31.04,1111122 
SCCF RECON,ioos:station:SCCF:56:1,2015-04-06T13:00:00Z,26.4645,-82.1044,1.0,31.13,1111122 
SCCF RECON,ioos:station:SCCF:56:1,2015-04-06T14:00:00Z,26.4645,-82.1044,1.0,31.08,1111122 
SCCF RECON,ioos:station:SCCF:56:1,2015-04-06T15:00:00Z,26.4645,-82.1044,1.0,29.83,1111122 
SCCF RECON,ioos:station:SCCF:56:1,2015-04-06T16:00:00Z,26.4645,-82.1044,1.0,30.0,1111122 
SCCF RECON,ioos:station:SCCF:56:1,2015-04-06T17:00:00Z,26.4645,-82.1044,1.0,29.91,1111122 
SCCF RECON,ioos:station:SCCF:56:1,2015-04-06T18:00:00Z,26.4645,-82.1044,1.0,29.81,1111122 
SCCF RECON,ioos:station:SCCF:56:1,2015-04-06T19:00:00Z,26.4645,-82.1044,1.0,29.8,1111122 
SCCF RECON,ioos:station:SCCF:56:1,2015-04-06T20:00:00Z,26.4645,-82.1044,1.0,30.03,1111122 
SCCF RECON,ioos:station:SCCF:56:1,2015-04-06T21:00:00Z,26.4645,-82.1044,1.0,29.87,1111122 
SCCF RECON,ioos:station:SCCF:56:1,2015-04-06T22:00:00Z,26.4645,-82.1044,1.0,30.09,1111122 
SCCF RECON,ioos:station:SCCF:56:1,2015-04-06T23:00:00Z,26.4645,-82.1044,1.0,30.38,1111122 
SCCF RECON,ioos:station:SCCF:56:1,2015-04-07T00:00:00Z,26.4645,-82.1044,1.0,30.6,1111122 
SCCF RECON,ioos:station:SCCF:56:1,2015-04-07T01:00:00Z,26.4645,-82.1044,1.0,30.85,1111122 
SCCF RECON,ioos:station:SCCF:56:1,2015-04-07T02:00:00Z,26.4645,-82.1044,1.0,30.98,1111122 
SCCF RECON,ioos:station:SCCF:56:1,2015-04-07T03:00:00Z,26.4645,-82.1044,1.0,31.08,1111122 
SCCF RECON,ioos:station:SCCF:56:1,2015-04-07T04:00:00Z,26.4645,-82.1044,1.0,30.34,1111122 
SCCF RECON,ioos:station:SCCF:56:1,2015-04-07T05:00:00Z,26.4645,-82.1044,1.0,30.13,1111122 
SCCF RECON,ioos:station:SCCF:56:1,2015-04-07T06:00:00Z,26.4645,-82.1044,1.0,30.13,1111122 
SCCF RECON,ioos:station:SCCF:56:1,2015-04-07T07:00:00Z,26.4645,-82.1044,1.0,30.1,1111122 
SCCF RECON,ioos:station:SCCF:56:1,2015-04-07T08:00:00Z,26.4645,-82.1044,1.0,29.89,1111122 
SCCF RECON,ioos:station:SCCF:56:1,2015-04-07T09:00:00Z,26.4645,-82.1044,1.0,30.26,1111122 
SCCF RECON,ioos:station:SCCF:56:1,2015-04-07T10:00:00Z,26.4645,-82.1044,1.0,30.1,1111122 
SCCF RECON,ioos:station:SCCF:56:1,2015-04-07T11:00:00Z,26.4645,-82.1044,1.0,30.22,1111122 
SCCF RECON,ioos:station:SCCF:56:1,2015-04-07T12:00:00Z,26.4645,-82.1044,1.0,30.42,1111122 
SCCF RECON,ioos:station:SCCF:56:1,2015-04-07T13:00:00Z,26.4645,-82.1044,1.0,30.48,1111122 
SCCF RECON,ioos:station:SCCF:56:1,2015-04-07T14:00:00Z,26.4645,-82.1044,1.0,30.57,1111122 
SCCF RECON,ioos:station:SCCF:56:1,2015-04-07T15:00:00Z,26.4645,-82.1044,1.0,30.34,1111122 
SCCF RECON,ioos:station:SCCF:56:1,2015-04-07T16:00:00Z,26.4645,-82.1044,1.0,30.1,1111122 
SCCF RECON,ioos:station:SCCF:56:1,2015-04-07T17:00:00Z,26.4645,-82.1044,1.0,29.93,1111122 
SCCF RECON,ioos:station:SCCF:56:1,2015-04-07T18:00:00Z,26.4645,-82.1044,1.0,29.96,1111122 
SCCF RECON,ioos:station:SCCF:56:1,2015-04-07T19:00:00Z,26.4645,-82.1044,1.0,29.98,1111122 
SCCF RECON,ioos:station:SCCF:56:1,2015-04-07T20:00:00Z,26.4645,-82.1044,1.0,29.98,1111122 
SCCF RECON,ioos:station:SCCF:56:1,2015-04-07T21:00:00Z,26.4645,-82.1044,1.0,30.02,1111122 
SCCF RECON,ioos:station:SCCF:56:1,2015-04-07T22:00:00Z,26.4645,-82.1044,1.0,30.15,1111122 
SCCF RECON,ioos:station:SCCF:56:1,2015-04-07T23:00:00Z,26.4645,-82.1044,1.0,30.36,1111122 
SCCF RECON,ioos:station:SCCF:56:1,2015-04-08T00:00:00Z,26.4645,-82.1044,1.0,30.51,1111122 
SCCF RECON,ioos:station:SCCF:56:1,2015-04-08T01:00:00Z,26.4645,-82.1044,1.0,30.74,1111122 
SCCF RECON,ioos:station:SCCF:56:1,2015-04-08T02:00:00Z,26.4645,-82.1044,1.0,30.9,1111122 
SCCF RECON,ioos:station:SCCF:56:1,2015-04-08T03:00:00Z,26.4645,-82.1044,1.0,31.01,1111122 
SCCF RECON,ioos:station:SCCF:56:1,2015-04-08T04:00:00Z,26.4645,-82.1044,1.0,31.0,1111122 
SCCF RECON,ioos:station:SCCF:56:1,2015-04-08T05:00:00Z,26.4645,-82.1044,1.0,30.2,1111122 
SCCF RECON,ioos:station:SCCF:56:1,2015-04-08T06:00:00Z,26.4645,-82.1044,1.0,30.12,1111122 
SCCF RECON,ioos:station:SCCF:56:1,2015-04-08T07:00:00Z,26.4645,-82.1044,1.0,30.09,1111122 
SCCF RECON,ioos:station:SCCF:56:1,2015-04-08T08:00:00Z,26.4645,-82.1044,1.0,30.09,1111122 
SCCF RECON,ioos:station:SCCF:56:1,2015-04-08T09:00:00Z,26.4645,-82.1044,1.0,30.07,1111122 
SCCF RECON,ioos:station:SCCF:56:1,2015-04-08T10:00:00Z,26.4645,-82.1044,1.0,30.07,1111122 
SCCF RECON,ioos:station:SCCF:56:1,2015-04-08T11:00:00Z,26.4645,-82.1044,1.0,30.12,1111122 
SCCF RECON,ioos:station:SCCF:56:1,2015-04-08T12:00:00Z,26.4645,-82.1044,1.0,30.26,1111122 
SCCF RECON,ioos:station:SCCF:56:1,2015-04-08T13:00:00Z,26.4645,-82.1044,1.0,30.31,1111122 
SCCF RECON,ioos:station:SCCF:56:1,2015-04-08T14:00:00Z,26.4645,-82.1044,1.0,30.38,1111122 
SCCF RECON,ioos:station:SCCF:56:1,2015-04-08T15:00:00Z,26.4645,-82.1044,1.0,30.28,1111122 
SCCF RECON,ioos:station:SCCF:56:1,2015-04-08T16:00:00Z,26.4645,-82.1044,1.0,30.06,1111122 
SCCF RECON,ioos:station:SCCF:56:1,2015-04-08T17:00:00Z,26.4645,-82.1044,1.0,30.03,1111122 
SCCF RECON,ioos:station:SCCF:56:1,2015-04-08T18:00:00Z,26.4645,-82.1044,1.0,29.73,1111122 
SCCF RECON,ioos:station:SCCF:56:1,2015-04-08T19:00:00Z,26.4645,-82.1044,1.0,29.61,1111122 
SCCF RECON,ioos:station:SCCF:56:1,2015-04-08T20:00:00Z,26.4645,-82.1044,1.0,29.57,1111122 
SCCF RECON,ioos:station:SCCF:56:1,2015-04-08T21:00:00Z,26.4645,-82.1044,1.0,29.83,1111122 
SCCF RECON,ioos:station:SCCF:56:1,2015-04-08T22:00:00Z,26.4645,-82.1044,1.0,29.82,1111122 
SCCF RECON,ioos:station:SCCF:56:1,2015-04-08T23:00:00Z,26.4645,-82.1044,1.0,29.99,1111122 
SCCF RECON,ioos:station:SCCF:56:1,2015-04-09T00:00:00Z,26.4645,-82.1044,1.0,30.15,1111122 
SCCF RECON,ioos:station:SCCF:56:1,2015-04-09T01:00:00Z,26.4645,-82.1044,1.0,30.36,1111122 
SCCF RECON,ioos:station:SCCF:56:1,2015-04-09T02:00:00Z,26.4645,-82.1044,1.0,30.55,1111122 
SCCF RECON,ioos:station:SCCF:56:1,2015-04-09T03:00:00Z,26.4645,-82.1044,1.0,30.76,1111122 
SCCF RECON,ioos:station:SCCF:56:1,2015-04-09T04:00:00Z,26.4645,-82.1044,1.0,30.85,1111122 
SCCF RECON,ioos:station:SCCF:56:1,2015-04-09T05:00:00Z,26.4645,-82.1044,1.0,30.06,1111122 
SCCF RECON,ioos:station:SCCF:56:1,2015-04-09T06:00:00Z,26.4645,-82.1044,1.0,29.94,1111122 
SCCF RECON,ioos:station:SCCF:56:1,2015-04-09T07:00:00Z,26.4645,-82.1044,1.0,29.79,1111122 
SCCF RECON,ioos:station:SCCF:56:1,2015-04-09T08:00:00Z,26.4645,-82.1044,1.0,29.71,1111122 
SCCF RECON,ioos:station:SCCF:56:1,2015-04-09T09:00:00Z,26.4645,-82.1044,1.0,29.6,1111122 
SCCF RECON,ioos:station:SCCF:56:1,2015-04-09T10:00:00Z,26.4645,-82.1044,1.0,29.73,1111122 
SCCF RECON,ioos:station:SCCF:56:1,2015-04-09T11:00:00Z,26.4645,-82.1044,1.0,29.74,1111122 
SCCF RECON,ioos:station:SCCF:56:1,2015-04-09T12:00:00Z,26.4645,-82.1044,1.0,29.8,1111122 
SCCF RECON,ioos:station:SCCF:56:1,2015-04-09T13:00:00Z,26.4645,-82.1044,1.0,29.93,1111122 
SCCF RECON,ioos:station:SCCF:56:1,2015-04-09T14:00:00Z,26.4645,-82.1044,1.0,29.97,1111122 
SCCF RECON,ioos:station:SCCF:56:1,2015-04-09T15:00:00Z,26.4645,-82.1044,1.0,29.88,1111122 
SCCF RECON,ioos:station:SCCF:56:1,2015-04-09T16:00:00Z,26.4645,-82.1044,1.0,29.9,1111122 
SCCF RECON,ioos:station:SCCF:56:1,2015-04-09T17:00:00Z,26.4645,-82.1044,1.0,29.71,1111122 
SCCF RECON,ioos:station:SCCF:56:1,2015-04-09T18:00:00Z,26.4645,-82.1044,1.0,29.67,1111122 
SCCF RECON,ioos:station:SCCF:56:1,2015-04-09T19:00:00Z,26.4645,-82.1044,1.0,29.64,1111122 
SCCF RECON,ioos:station:SCCF:56:1,2015-04-09T20:00:00Z,26.4645,-82.1044,1.0,29.67,1111122 
SCCF RECON,ioos:station:SCCF:56:1,2015-04-09T21:00:00Z,26.4645,-82.1044,1.0,29.65,1111122 
SCCF RECON,ioos:station:SCCF:56:1,2015-04-09T22:00:00Z,26.4645,-82.1044,1.0,29.83,1111122 
SCCF RECON,ioos:station:SCCF:56:1,2015-04-09T23:00:00Z,26.4645,-82.1044,1.0,29.7,1111122 
SCCF RECON,ioos:station:SCCF:56:1,2015-04-10T00:00:00Z,26.4645,-82.1044,1.0,29.88,1111122 
SCCF RECON,ioos:station:SCCF:56:1,2015-04-10T01:00:00Z,26.4645,-82.1044,1.0,30.12,1111122 
SCCF RECON,ioos:station:SCCF:56:1,2015-04-10T02:00:00Z,26.4645,-82.1044,1.0,30.25,1111122 
SCCF RECON,ioos:station:SCCF:56:1,2015-04-10T03:00:00Z,26.4645,-82.1044,1.0,30.45,1111122 
SCCF RECON,ioos:station:SCCF:56:1,2015-04-10T04:00:00Z,26.4645,-82.1044,1.0,30.63,1111122 
SCCF RECON,ioos:station:SCCF:56:1,2015-04-10T05:00:00Z,26.4645,-82.1044,1.0,30.68,1111122 
SCCF RECON,ioos:station:SCCF:56:1,2015-04-10T06:00:00Z,26.4645,-82.1044,1.0,30.0,1111122 
SCCF RECON,ioos:station:SCCF:56:1,2015-04-10T07:00:00Z,26.4645,-82.1044,1.0,29.97,1111122 
SCCF RECON,ioos:station:SCCF:56:1,2015-04-10T08:00:00Z,26.4645,-82.1044,1.0,29.89,1111122 
SCCF RECON,ioos:station:SCCF:56:1,2015-04-10T09:00:00Z,26.4645,-82.1044,1.0,29.9,1111122 
SCCF RECON,ioos:station:SCCF:56:1,2015-04-10T10:00:00Z,26.4645,-82.1044,1.0,29.82,1111122 
SCCF RECON,ioos:station:SCCF:56:1,2015-04-10T11:00:00Z,26.4645,-82.1044,1.0,29.78,1111122 
SCCF RECON,ioos:station:SCCF:56:1,2015-04-10T12:00:00Z,26.4645,-82.1044,1.0,29.83,1111122 
SCCF RECON,ioos:station:SCCF:56:1,2015-04-10T13:00:00Z,26.4645,-82.1044,1.0,29.86,1111122 
SCCF RECON,ioos:station:SCCF:56:1,2015-04-10T14:00:00Z,26.4645,-82.1044,1.0,29.85,1111122 
SCCF RECON,ioos:station:SCCF:56:1,2015-04-10T15:00:00Z,26.4645,-82.1044,1.0,29.86,1111122 
SCCF RECON,ioos:station:SCCF:56:1,2015-04-10T16:00:00Z,26.4645,-82.1044,1.0,30.02,1111122 
SCCF RECON,ioos:station:SCCF:56:1,2015-04-10T17:00:00Z,26.4645,-82.1044,1.0,29.86,1111122 
SCCF RECON,ioos:station:SCCF:56:1,2015-04-10T18:00:00Z,26.4645,-82.1044,1.0,29.82,1111122 
SCCF RECON,ioos:station:SCCF:56:1,2015-04-10T19:00:00Z,26.4645,-82.1044,1.0,29.92,1111122 
SCCF RECON,ioos:station:SCCF:56:1,2015-04-10T20:00:00Z,26.4645,-82.1044,1.0,30.02,1111122 
SCCF RECON,ioos:station:SCCF:56:1,2015-04-10T21:00:00Z,26.4645,-82.1044,1.0,30.06,1111122 
SCCF RECON,ioos:station:SCCF:56:1,2015-04-10T22:00:00Z,26.4645,-82.1044,1.0,30.12,1111122 
SCCF RECON,ioos:station:SCCF:56:1,2015-04-10T23:00:00Z,26.4645,-82.1044,1.0,30.06,1111122 
SCCF RECON,ioos:station:SCCF:56:1,2015-04-11T00:00:00Z,26.4645,-82.1044,1.0,30.02,1111122 
SCCF RECON,ioos:station:SCCF:56:1,2015-04-11T01:00:00Z,26.4645,-82.1044,1.0,30.1,1111122 
SCCF RECON,ioos:station:SCCF:56:1,2015-04-11T02:00:00Z,26.4645,-82.1044,1.0,30.17,1111122 
SCCF RECON,ioos:station:SCCF:56:1,2015-04-11T03:00:00Z,26.4645,-82.1044,1.0,30.31,1111122 
SCCF RECON,ioos:station:SCCF:56:1,2015-04-11T04:00:00Z,26.4645,-82.1044,1.0,30.46,1111122 
SCCF RECON,ioos:station:SCCF:56:1,2015-04-11T05:00:00Z,26.4645,-82.1044,1.0,30.59,1111122 
SCCF RECON,ioos:station:SCCF:56:1,2015-04-11T06:00:00Z,26.4645,-82.1044,1.0,30.69,1111122 
SCCF RECON,ioos:station:SCCF:56:1,2015-04-11T07:00:00Z,26.4645,-82.1044,1.0,30.62,1111122 
SCCF RECON,ioos:station:SCCF:56:1,2015-04-11T08:00:00Z,26.4645,-82.1044,1.0,30.37,1111122 
SCCF RECON,ioos:station:SCCF:56:1,2015-04-11T09:00:00Z,26.4645,-82.1044,1.0,30.31,1111122 
SCCF RECON,ioos:station:SCCF:56:1,2015-04-11T10:00:00Z,26.4645,-82.1044,1.0,30.19,1111122 
SCCF RECON,ioos:station:SCCF:56:1,2015-04-11T11:00:00Z,26.4645,-82.1044,1.0,30.06,1111122 
SCCF RECON,ioos:station:SCCF:56:1,2015-04-11T12:00:00Z,26.4645,-82.1044,1.0,30.04,1111122 
SCCF RECON,ioos:station:SCCF:56:1,2015-04-11T13:00:00Z,26.4645,-82.1044,1.0,30.2,1111122 
SCCF RECON,ioos:station:SCCF:56:1,2015-04-11T14:00:00Z,26.4645,-82.1044,1.0,30.11,1111122 
SCCF RECON,ioos:station:SCCF:56:1,2015-04-11T15:00:00Z,26.4645,-82.1044,1.0,30.15,1111122 
SCCF RECON,ioos:station:SCCF:56:1,2015-04-11T16:00:00Z,26.4645,-82.1044,1.0,30.13,1111122 
SCCF RECON,ioos:station:SCCF:56:1,2015-04-11T17:00:00Z,26.4645,-82.1044,1.0,30.21,1111122 
SCCF RECON,ioos:station:SCCF:56:1,2015-04-11T18:00:00Z,26.4645,-82.1044,1.0,30.19,1111122 
SCCF RECON,ioos:station:SCCF:56:1,2015-04-11T19:00:00Z,26.4645,-82.1044,1.0,30.14,1111122 
SCCF RECON,ioos:station:SCCF:56:1,2015-04-11T20:00:00Z,26.4645,-82.1044,1.0,30.21,1111122 
SCCF RECON,ioos:station:SCCF:56:1,2015-04-11T21:00:00Z,26.4645,-82.1044,1.0,30.27,1111122 
SCCF RECON,ioos:station:SCCF:56:1,2015-04-11T22:00:00Z,26.4645,-82.1044,1.0,30.34,1111122 
SCCF RECON,ioos:station:SCCF:56:1,2015-04-11T23:00:00Z,26.4645,-82.1044,1.0,30.33,1111122 